Location: Mizzole
(45.4833°N, 11.0500°E)
Time: 12:12:05
(UTC+00:00)

NOSS 3-2 (C) - Pass Details

Date: 21 October 2019
Orbit: 818 x 1394 km, 63.4° (Epoch: 11 November)

Event Time Altitude Azimuth Distance (km) Brightness Sun altitude
Rises 17:57:46 0° 201° (SSW) 3,375 6.6 -17.7°
Reaches altitude 10° 18:00:09 10° 196° (SSW) 2,481 5.8 -18.1°
Maximum altitude 18:05:42 55° 120° (ESE) 1,091 3.4 -19.1°
Enters shadow 18:09:34 23° 52° (NE) 1,945 4.7 -19.8°
